SAL-E

导读

SAL-E(NORAD编号68458)是被纳入北美防空司令部(NORAD)卫星编号目录的空间飞行器,由NORAD进行长期轨道跟踪与监测。目前公开渠道关于该卫星的任务属性、研制主体、具体功能等详细信息较为有限,仅在全球卫星轨道编目体系中留存其编号记录。结合NORAD编号体系的运作机制,该卫星作为已登记的太空飞行体,其轨道参数通过卫星星历(TLE)格式定期更新,用于空间态势感知监测,服务于太空目标识别与轨道碰撞预警等航天安全保障工作。

基本信息
目录编号:
68458
目录名称:
SAL-E
国际标识:
2026-067AU
轨道中心:
EARTH
卫星名称:
SAL-E
卫星全名:
SAL-E
卫星状态:
在轨 (已飞行77 天)
发射日期:
2026-03-30 UTC
国别 :
美国 (US)
星等 :
--
轨道信息
数据来源 国际轨道数据
星历时间: 2026-06-15T05:01:57+0800
6小时前
查看轨道信息
半长轴: 6890.846km
偏心率: 0.0008018
轨道倾角: 97.448°
近地点辐角 85.217°
升交点赤经 124.213°
平近点角 274.998°
近地点: 507.183km
远地点: 518.235km
周期: 94.879分钟
每日圈数: 15.177281
详细信息
使用方式:
暂无
2D轨道图
3D轨道图
轨道高度分析图
轨道倾角分析图
轨道综合分析图
查看轨道综合分析图